STARLINK-3781, 52272

Orbit data source: Space-Track

STARLINK-3781, 52272 is a payload satellite owned by SpaceX/Seattle (US) in LEO that was launched on Thu, 21 Apr 2022 UTC via an FALCON 9 launch vehicle from the Air Force Eastern Test Range (AFETR). Payload-class satellites include a variety of spacecraft equipped with specific instruments for various scientific and technological missions. These include communications satellites like Starlink; space stations such as the ISS; scientific satellites like the Hubble; Earth observation satellites from companies like Planet Labs, Umbra, and HawkEye 360; GPS; miniature CubeSats for education and research; and military/defense satellites.

Loading next visibility...
Identifier
52272, 2022-041M
Orbit
LEO
Country
Flag of USUS
Related business
Manufacturer
SpaceX/Seattle
Mission
Operational Commercial Communications
Bus & Motor
STARLINK, Unknown motor
Mass
297 kg wet, ~275 kg dry
Launch date (UTC)
2022-04-21 (4 years ago)
Launch vehicle
FALCON 9
Launch site
Air Force Eastern Test Range (AFETR)
Object type
Payload
Rocket body
Debris
Shape & HBR
Box + 1 Pan, 10.1 m
Radar Cross Section
11.087 m², Large (>1 m²)

Expand to show TLE details & history
Last TLE update: 14 hours ago

TLE from 14 hours ago
0 STARLINK-3781
1 52272U 22041M   26221.49970738  .00001510  00000-0  60399-4 0  9995
2 52272  53.1617 136.4614 0001319  83.2111 276.9041 15.31714683237525
Epoch: 2026-08-09T11:59Z
TLE epoch observation values (Epoch: 2026-08-09T11:59:34.717Z)
Latitude
0.00001°
Longitude
-1.42906°
Altitude
471.488 km
Speed
7.632 km/s
True Right ascension
09h 05m 50s
True Declination
0° 00' 00"
Sunlit
Object was in daylight at epoch
Visualization orbit readout
Latitude
Unknown
Longitude
Unknown
Altitude
Unknown
Speed
Unknown
Apparent Right ascension
Unknown
Apparent Declination
Unknown
Sunlit
N/A
Visualization observer readout
Local Sidereal Time
16:43:08
Azimuth
Unknown
Elevation
Unknown
Doppler factor
Unknown
Orbital elements
Apogee altitude
471.856 km
Perigee altitude
470.049 km
Semi-major axis
6,849.09 km
Eccentricity
0.00013
Inclination
53.1617°
RAAN
136.4614°
Arg. of periapsis
83.2111°
True anomaly
276.88909°
Mean anomaly
276.9041°
Eccentric anomaly
276.8966°
Mean motion
3.82908 °/min
Orbital period
94.02 mins
BSTAR
0.000060399
Loading maneuver chart data...
Computing Atmospheric mass density...
Loading historical data...
Loading historical data...
Loading historical data...
Loading historical data...
Loading historical data...
Loading historical data...
Loading historical data...

Documentation

Showing up to 5 results
|